This demonstration page uses our WeatherBlox Daily Observations layout. Learn more.

Left ArrowRight Arrow

34.16533, -84.80231

Hourly Observations for April 25, 2020

Temp ( °F °C ) Dew Point ( °F °C ) Humidity (%) Winds ( mph kmh ) Pressure ( in mb ) Visibility ( mi km ) Precip ( " mm )
12:53 am 00:53 Clear 52 11.1 50 10 93 93 Calm 29.83 1010 10 16 0.00 0.00
1:53 am 01:53 Clear 52 11.1 50 10 93 93 Calm 29.85 1011 8 13 0.00 0.00
2:53 am 02:53 Clear 53 11.7 50 10 89 89 Calm 29.84 1011 7 11 0.00 0.00
3:53 am 03:53 Mostly Cloudy 54 12.2 51 10.6 90 90 Calm 29.83 1010 10 16 0.00 0.00
4:53 am 04:53 Clear 52 11.1 50 10 93 93 Calm 29.85 1011 10 16 0.00 0.00
5:53 am 05:53 Mostly Cloudy 54 12.2 52 11.1 93 93 Calm 29.88 1012 10 16 0.00 0.00
6:53 am 06:53 Cloudy with Light Rain 54 12.2 52 11.1 93 93 Calm 29.89 1012 10 16 0.00 0.00
7:53 am 07:53 Cloudy 55 12.8 53 11.7 93 93 Calm 29.88 1012 10 16 0.01 0.25
8:53 am 08:53 Mostly Cloudy 57 13.9 54 12.2 90 90 ESE 6 9 29.85 1011 10 16 0.00 0.00
9:53 am 09:53 Mostly Sunny 65 18.3 56 13.3 73 73 VRB 7 11 29.85 1011 10 16 0.00 0.00
10:53 am 10:53 Mostly Cloudy 68 20 56 13.3 65 65 SSE 13 20 29.86 1011 10 16 0.00 0.00
11:53 am 11:53 Mostly Cloudy 72 22.2 57 13.9 59 59 S 9 15 29.84 1011 10 16 0.00 0.00
12:53 pm 12:53 Mostly Cloudy 74 23.3 57 13.9 56 56 S 13 20 29.83 1010 10 16 0.00 0.00
1:53 pm 13:53 Mostly Sunny 77 25 56 13.3 48 48 SSE 17 28 29.79 1009 10 16 0.00 0.00
2:53 pm 14:53 Mostly Cloudy 78 25.6 56 13.3 47 47 S 9 15 29.78 1008 10 16 0.00 0.00
3:53 pm 15:53 Cloudy 77 25 56 13.3 48 48 SSW 5 7 29.76 1008 10 16 0.00 0.00
4:53 pm 16:53 Partly Cloudy 80 26.7 55 12.8 42 42 S 8 13 29.74 1007 10 16 0.00 0.00
5:53 pm 17:53 Mostly Cloudy 79 26.1 55 12.8 44 44 VRB 6 9 29.73 1007 10 16 0.00 0.00
6:53 pm 18:53 Mostly Sunny 78 25.6 55 12.8 45 45 VRB 6 9 29.74 1007 10 16 0.00 0.00
7:53 pm 19:53 Mostly Sunny 74 23.3 54 12.2 50 50 VRB 5 7 29.77 1008 10 16 0.00 0.00
8:53 pm 20:53 Partly Cloudy 71 21.7 52 11.1 51 51 VRB 5 7 29.81 1009 10 16 0.00 0.00
9:53 pm 21:53 Clear 67 19.4 48 8.9 51 51 VRB 3 6 29.85 1011 10 16 0.00 0.00
10:53 pm 22:53 Clear 65 18.3 49 9.4 56 56 VRB 3 6 29.87 1012 10 16 0.00 0.00
11:53 pm 23:53 Clear 64 17.8 49 9.4 58 58 VRB 6 9 29.89 1012 10 16 0.00 0.00

Powered by AerisWeather